Cloud_Cover
0 0 0 0 0 0 0 0 0 0 0 2 0 0 0 0 0 0 0 0 0 0 5 3 1 5 0 0 0 0 0 0 0 0 0 0 3 0 32 91 62 5 5 5 0 0 0 0 0
0 0 0 0 0 0 0 0 0 0 0 0 0 0 0 0 0 0 0 0 0 0 0 0 4 0 0 0 0 0 0 0 0 0 0 7 4 1 100 8 5 5 5 5 0 2 0 0 0
0 0 0 0 0 0 0 0 0 0 0 0 0 0 0 0 1 0 0 0 0 0 0 0 0 0 0 0 0 0 0 0 0 0 0 2 78 63 12 5 5 9 4 4 0 0 0 0 2
0 0 0 0 0 0 0 0 0 0 0 0 0 0 0 5 5 5 0 0 0 0 0 48 0 0 0 0 0 0 0 0 0 0 0 47 100 100 100 100 5 7 5 5 2 0 0 0 0
0 0 0 0 0 0 0 0 0 5 5 5 0 0 1 26 5 5 3 0 0 0 0 11 3 0 0 0 0 0 0 0 0 0 3 78 70 49 10 54 50 5 5 5 2 0 0 0 0
0 0 0 0 0 0 0 1 5 5 5 5 0 1 5 5 82 16 0 0 1 1 0 0 19 0 0 0 1 0 0 0 0 0 0 2 5 0 3 5 30 12 5 2 5 0 0 0 2
0 0 0 0 0 0 1 5 5 35 5 5 5 4 12 11 99 5 5 2 35 1 2 0 4 25 33 0 3 0 0 0 0 0 0 0 5 76 92 25 12 5 1 0 1 4 5 3 21
0 0 0 0 0 0 0 5 71 38 8 5 5 9 97 100 100 23 32 77 5 1 0 0 0 0 7 13 7 0 0 0 3 0 5 24 100 26 7 5 5 4 4 0 2 1 5 5 5
0 0 0 0 0 0 0 1 53 94 96 88 28 44 99 100 100 100 100 61 4 4 1 0 0 1 10 6 26 52 15 5 9 1 36 68 6 8 8 5 5 3 0 0 0 1 5 5 5
0 0 0 0 0 0 0 2 17 26 8 6 37 100 100 100 100 100 62 99 5 89 5 5 1 11 100 65 51 67 79 8 6 8 11 7 70 98 100 78 5 5 5 5 5 18 0 5 31
0 0 0 0 0 0 6 4 50 38 97 6 29 100 100 100 100 80 94 7 99 12 5 2 0 14 31 24 100 96 100 75 76 71 98 95 100 100 86 60 64 72 23 30 6 6 5 0 0
0 0 0 0 0 0 0 2 5 6 22 5 10 100 82 100 87 19 70 28 5 5 4 0 0 23 60 53 100 100 100 100 100 99 100 100 100 76 100 94 100 97 92 91 94 58 23 6 5
0 0 0 0 2 4 3 5 5 76 10 51 100 84 28 100 100 100 100 100 5 4 0 2 0 10 77 50 99 100 100 100 100 98 82 86 85 93 98 97 78 100 100 100 97 98 95 66 24
0 4 5 5 10 5 5 12 5 100 5 12 8 53 98 100 73 82 100 100 5 1 0 0 0 4 45 28 79 100 100 100 100 82 88 100 67 57 100 46 78 100 73 80 96 100 100 100 100
29 7 49 87 100 42 5 5 95 88 0 5 5 79 100 100 100 100 100 100 47 1 0 0 0 10 42 31 96 68 100 100 100 99 98 70 83 100 78 74 80 80 84 99 100 74 83 83 98
100 57 45 100 81 100 50 75 96 100 100 100 100 100 100 100 11 100 42 86 6 0 5 1 6 51 62 40 98 94 71 99 100 100 68 71 98 100 100 98 86 95 58 100 92 100 93 81 65
100 100 100 100 100 100 54 72 100 100 100 100 100 58 43 10 10 100 100 100 5 5 5 1 30 100 100 100 100 99 100 100 100 100 100 100 100 100 100 98 71 90 95 100 100 100 100 100 100
100 100 100 100 100 100 100 7 76 100 95 64 33 19 5 5 20 100 100 100 64 3 3 0 71 100 100 100 95 99 100 98 96 100 100 100 100 100 99 100 100 88 76 94 98 100 100 100 100
100 100 100 100 100 100 100 100 100 100 10 42 94 97 95 40 100 100 100 100 100 14 4 69 100 100 100 100 100 100 100 99 83 100 99 100 100 100 98 100 100 74 52 14 12 72 55 100 84
100 100 100 100 100 100 100 69 51 100 70 6 5 20 77 100 100 100 100 100 74 62 100 78 100 92 100 100 100 100 100 100 100 100 97 88 100 100 100 99 100 91 100 100 98 100 100 100 76
100 95 100 100 100 100 100 72 12 22 71 2 6 98 81 100 100 100 100 100 100 85 100 96 97 100 100 100 100 100 100 92 100 97 100 97 100 100 100 99 100 100 100 100 95 85 98 90 85
6 92 100 100 100 100 100 13 5 100 91 23 90 100 100 100 100 100 100 100 100 100 100 100 93 100 100 100 100 100 100 100 100 100 100 97 85 100 46 72 96 86 82 98 95 90 81 99 96
56 100 100 100 100 100 100 58 95 49 10 100 100 100 100 100 100 100 72 77 86 64 25 100 100 100 100 100 100 100 100 100 100 100 99 100 100 96 81 100 100 24 100 22 96 100 100 89 50
49 30 100 100 97 44 68 89 45 97 100 99 100 100 100 100 100 100 79 5 5 5 23 98 100 100 92 100 100 100 100 100 100 100 100 100 100 96 77 100 100 100 100 100 100 100 100 100 100
77 100 100 99 62 5 94 100 10 100 98 100 100 100 100 100 42 11 73 11 65 83 100 100 100 100 94 97 96 100 100 100 100 100 100 100 100 89 100 100 100 100 100 100 100 100 100 100 100
100 100 100 100 100 24 100 79 96 100 100 100 100 100 100 100 100 100 100 100 100 94 57 82 82 100 100 95 100 100 100 100 100 100 100 100 100 100 100 100 100 100 100 100 100 100 100 100 100
75 100 20 100 100 100 66 16 70 99 100 100 100 100 100 100 100 100 100 100 100 96 5 23 78 100 100 100 100 100 100 100 100 100 100 100 100 100 100 100 100 100 100 100 100 100 100 100 100
66 27 98 100 100 52 4 3 0 100 100 100 100 100 100 100 100 100 100 100 100 59 66 5 37 100 100 100 46 93 100 100 100 100 100 100 100 100 100 100 100 100 100 100 100 100 100 100 100
18 33 100 100 100 100 70 6 54 100 100 100 100 100 100 100 100 100 100 100 100 100 56 70 95 100 49 99 20 99 100 100 100 100 100 100 100 100 100 100 100 100 100 100 100 91 100 100 100
99 67 6 100 77 100 100 12 100 100 100 9 100 100 100 100 100 100 100 100 100 31 20 69 37 78 60 100 100 100 100 100 100 100 100 100 100 100 100 100 100 100 100 100 100 100 100 100 100